EW9439 Weather Reports


time (UTC)temp
C
wind
direction
speed
KPH
gust
KPH
rain 1hr
cm
rain 24hr
cm
rain mn
cm
humidity
%
barometer
mb
20260506044616 21 155 0.0 0.0 0.00 0.00 0.00 57 1009.7
20260506044501 21 155 0.0 0.0 0.00 0.00 0.00 57 1009.7
20260506043020 21 155 0.0 0.0 0.00 0.00 0.00 57 1010.1
20260506041522 20 165 0.0 0.0 0.00 0.00 0.00 59 1010.2
20260506040023 21 165 0.0 0.0 0.00 0.00 0.00 57 1010.0
20260506034527 21 165 0.0 0.0 0.00 0.00 0.00 54 1009.9
20260506033033 21 165 0.0 0.0 0.00 0.00 0.00 52 1010.2
20260506031532 21 177 0.0 0.0 0.00 0.00 0.00 51 1010.1
20260506030034 21 169 0.0 6.4 0.00 0.00 0.00 49 1010.1
20260506024535 21 360 0.0 1.6 0.00 0.00 0.00 50 1010.4
20260506023043 21 360 0.0 0.0 0.00 0.00 0.00 49 1010.2
20260506021537 21 360 0.0 0.0 0.00 0.00 0.00 48 1010.1
20260506020115 21 360 0.0 0.0 0.00 0.00 0.00 48 1009.8
20260506014551 21 340 0.0 0.0 0.00 0.00 0.00 48 1009.9
20260506013016 21 340 0.0 0.0 0.00 0.00 0.00 49 1009.9
20260506011516 21 340 0.0 0.0 0.00 0.00 0.00 48 1009.6
20260506010037 22 340 0.0 0.0 0.00 0.00 0.00 47 1009.7
20260506004541 22 340 0.0 0.0 0.00 0.00 0.00 47 1009.8
20260506003025 22 269 0.0 0.0 0.00 0.00 0.00 47 1009.9
20260506001527 22 269 0.0 0.0 0.00 0.00 0.00 48 1009.8
20260506000048 23 269 0.0 0.0 0.00 0.00 0.00 48 1009.7
20260505234534 23 198 0.0 0.0 0.00 0.00 0.00 46 1009.7
20260505233033 23 198 0.0 0.0 0.00 0.00 0.00 45 1009.6
20260505231538 24 230 0.0 0.0 0.00 0.00 0.00 46 1009.6
20260505230045 24 230 0.0 0.0 0.00 0.00 0.00 44 1009.5
20260505224548 24 153 0.0 0.0 0.00 0.00 0.00 44 1009.7
20260505223007 24 55 0.0 0.0 0.00 0.00 0.00 44 1009.6
20260505221603 25 229 0.0 3.2 0.00 0.00 0.00 41 1009.6
20260505221506 25 229 0.0 3.2 0.00 0.00 0.00 41 1009.6
20260505220008 25 177 0.0 3.2 0.00 0.00 0.00 41 1009.3
20260505214512 25 165 0.0 0.0 0.00 0.00 0.00 41 1009.7
20260505213016 25 151 0.0 0.0 0.00 0.00 0.00 42 1009.7
20260505211528 25 136 0.0 6.4 0.00 0.00 0.00 40 1009.9
20260505210044 25 184 0.0 1.6 0.00 0.00 0.00 39 1009.8
20260505204555 25 64 0.0 1.6 0.00 0.00 0.00 41 1010.1
20260505203044 26 117 0.0 6.4 0.00 0.00 0.00 40 1010.2
20260505201546 25 123 0.0 0.0 0.00 0.00 0.00 41 1010.2
20260505200008 26 204 0.0 3.2 0.00 0.00 0.00 40 1010.5
20260505194508 26 221 0.0 0.0 0.00 0.00 0.00 40 1010.9
20260505193010 25 86 0.0 0.0 0.00 0.00 0.00 40 1011.0
20260505191514 25 337 0.0 3.2 0.00 0.00 0.00 45 1011.0
20260505190013 25 234 0.0 1.6 0.00 0.00 0.00 41 1011.1
20260505184514 25 83 0.0 0.0 0.00 0.00 0.00 43 1011.2
20260505183016 25 206 0.0 0.0 0.00 0.00 0.00 42 1011.2
20260505181524 25 94 0.0 1.6 0.00 0.00 0.00 41 1011.6
20260505180030 24 130 0.0 0.0 0.00 0.00 0.00 47 1011.9
20260505174538 24 126 0.0 0.0 0.00 0.00 0.00 45 1012.0
20260505173033 25 24 0.0 0.0 0.00 0.00 0.00 45 1012.4
20260505171541 25 174 0.0 1.6 0.00 0.00 0.00 44 1012.3
20260505170039 24 350 0.0 1.6 0.00 0.00 0.00 47 1012.4
20260505164526 25 169 0.0 6.4 0.00 0.00 0.00 47 1012.3
20260505163026 23 190 0.0 0.0 0.00 0.00 0.00 49 1012.3
20260505161547 23 187 0.0 3.2 0.00 0.00 0.00 48 1012.4
20260505153055 23 313 0.0 0.0 0.00 0.00 0.00 50 1012.7
20260505151602 23 205 0.0 0.0 0.00 0.00 0.00 49 1012.6
20260505140109 18 98 0.0 1.6 0.00 0.00 0.00 71 1012.7
20260505124525 12 87 0.0 0.0 0.00 0.00 0.00 85 1012.4
20260505123044 11 87 0.0 0.0 0.00 0.00 0.00 87 1012.3
20260505121513 10 87 0.0 0.0 0.00 0.00 0.00 90 1012.2
20260505120015 10 87 0.0 0.0 0.00 0.00 0.00 90 1012.2
20260505114519 9 87 0.0 0.0 0.00 0.00 0.00 90 1012.0
20260505113020 9 87 0.0 0.0 0.00 0.00 0.00 90 1011.7
20260505111532 8 87 0.0 0.0 0.00 0.00 0.00 90 1011.5
20260505110105 8 87 0.0 0.0 0.00 0.00 0.00 89 1011.3
20260505101547 9 87 0.0 0.0 0.00 0.00 0.00 89 1011.2
20260505100047 9 87 0.0 0.0 0.00 0.00 0.00 89 1011.5
20260505094547 9 87 0.0 0.0 0.00 0.00 0.00 89 1011.5
20260505093050 9 87 0.0 0.0 0.00 0.00 0.00 88 1011.3
20260505091555 10 87 0.0 0.0 0.00 0.00 0.00 88 1011.3
20260505090050 10 87 0.0 0.0 0.00 0.00 0.00 88 1011.7
20260505084603 10 87 0.0 0.0 0.00 0.00 0.00 87 1011.7
20260505083111 10 87 0.0 0.0 0.00 0.00 0.00 87 1011.5
20260505081502 10 87 0.0 0.0 0.00 0.00 0.00 86 1011.6
20260505080007 10 87 0.0 0.0 0.00 0.00 0.00 86 1011.7
20260505074505 10 87 0.0 0.0 0.00 0.00 0.00 85 1011.6
20260505073008 10 87 0.0 0.0 0.00 0.00 0.00 85 1011.6
20260505071527 11 87 0.0 0.0 0.00 0.00 0.00 84 1011.7
20260505070030 11 87 0.0 0.0 0.00 0.00 0.00 83 1011.7
20260505064533 11 87 0.0 0.0 0.00 0.00 0.00 83 1011.7
20260505063028 11 87 0.0 0.0 0.00 0.00 0.00 82 1011.7
20260505061530 11 87 0.0 0.0 0.00 0.00 0.00 82 1011.8
20260505060033 11 87 0.0 0.0 0.00 0.00 0.00 81 1011.9
20260505054545 11 87 0.0 0.0 0.00 0.00 0.00 81 1012.0
20260505053038 12 87 0.0 0.0 0.00 0.00 0.00 80 1012.0
20260505051540 12 87 0.0 0.0 0.00 0.00 0.00 79 1012.0